Thunderstorms From: 20-07-2018 09:00 Until: 21-07-2018 05:00 warning for: Thunderstorms Level: Yellow info button

Although rather usual in this region, locally or potentially dangerous phenomena are expected. (such as local winds, summer thunderstorms, rising streams or high waves) Be aware and pay attention to the latest weather updates, especially if you carry out activities exposed to weather or close to a stream or shoreline. 

Meteo18 Weather Cam more information Meteo18 Weather Cam


warning for Thunderstorms more information blitzortung!


Rain radar more information rain snow radar



Select another period ( hide this area )

Units Period Custom range Directly to
Metric English Both
Daily Weekly Monthly Yearly
use both date-selectors for a custom range
previous Day
With this date

WeatherUnderground graphs for this period ( click here )


Daily Summary for Friday 20 July 2018
Time Temp. ( °C ) Dew pt. ( °C ) Wind ( km/h ) from Gust ( km/h ) Pressure ( hPa ) Humid.( % ) Rainrate ( cm )
High22,4 16,8 19,5 NW ( 206/805 ) 30,6 1016,8 90 -
Average19,7 15,8 6,1 Calm #34/131 11,6 1015,6 79 -
Low17,2 15,0 -   0,0 1014,8 66 -
Daily Tabular details for Friday 20 July 2018
Time Temp. ( °C ) Dew pt. ( °C ) Wind ( km/h ) from Gust ( km/h ) Pressure ( hPa ) Humid.( % ) Rainrate ( cm )
00:04 20,9 16,7 16,3 North 22,5 1015,5 77 -
00:08 20,9 16,7 7,9 NNW 22,5 1015,5 77 -
00:14 20,9 16,7 13,0 North 17,7 1015,5 77 -
00:18 20,9 16,7 16,3 NNW 19,3 1015,5 77 -
00:24 21,1 16,7 3,2 ENE 11,3 1015,5 76 -
00:28 21,1 16,7 13,0 NNE 12,9 1015,8 76 -
00:34 21,2 16,6 3,2 North 8,0 1015,8 75 -
00:38 21,2 16,6 14,3 NE 17,7 1015,8 75 -
00:44 21,2 16,6 3,2 North 11,3 1015,5 75 -
00:48 21,1 16,7 9,7 NNW 12,9 1015,8 76 -
00:54 20,9 16,7 6,4 West 11,3 1016,1 77 -
00:58 21,0 16,8 11,1 West 22,5 1016,8 77 -
01:04 20,8 16,6 14,3 West 25,7 1016,8 77 -
01:08 20,8 16,6 7,9 West 16,1 1016,8 77 -
01:14 20,7 16,7 11,1 WNW 22,5 1016,8 78 -
01:18 20,7 16,7 16,3 WNW 16,1 1016,8 78 -
01:24 20,6 16,8 7,9 WNW 20,9 1016,5 79 -
01:28 20,4 16,6 7,9 NW 20,9 1016,5 79 -
01:34 20,2 16,6 13,0 West 17,7 1016,5 80 -
01:38 19,9 16,5 9,7 WNW 16,1 1016,5 81 -
01:44 19,6 16,4 6,4 North 24,1 1016,1 82 -
01:48 19,5 16,2 7,9 WNW 20,9 1015,8 81 -
01:54 19,4 16,1 9,7 West 25,7 1015,5 81 -
01:58 19,5 16,2 13,0 NW 20,9 1015,5 81 -
02:04 19,6 15,9 7,9 NW 20,9 1015,1 79 -
02:08 19,7 16,0 6,4 NW 16,1 1015,1 79 -
02:14 19,7 16,0 11,1 NNW 24,1 1015,1 79 -
02:18 19,7 16,0 6,4 NW 20,9 1015,5 79 -
02:24 19,6 15,9 16,3 WNW 22,5 1015,5 79 -
02:28 19,6 15,9 4,7 NW 16,1 1015,8 79 -
02:34 19,6 16,1 11,1 NW 24,1 1015,8 80 -
02:38 19,4 15,9 9,7 WNW 11,3 1016,1 80 -
02:44 19,4 15,9 11,1 NNW 20,9 1015,8 80 -
02:48 19,3 16,0 19,5 West 30,6 1015,5 81 -
02:54 18,8 15,9 14,3 WNW 20,9 1015,1 83 -
02:58 18,7 15,6 4,7 NW 20,9 1015,1 82 -
03:04 18,8 15,3 14,3 NNW 19,3 1015,1 80 -
03:08 18,9 15,2 7,9 NW 17,7 1015,1 79 -
03:14 18,9 15,2 17,7 NNW 24,1 1015,1 79 -
03:18 18,9 15,4 9,7 NW 22,5 1015,1 80 -
03:24 18,9 15,4 6,4 NNE 17,7 1014,8 80 -
03:28 18,9 15,6 7,9 NW 19,3 1014,8 81 -
03:34 18,8 15,5 6,4 North 11,3 1015,1 81 -
03:38 18,9 15,6 4,7 NNW 6,4 1015,1 81 -
03:44 18,8 15,5 4,7 NW 17,7 1015,1 81 -
03:48 18,8 15,7 4,7 WSW 14,5 1015,5 82 -
03:54 18,6 15,7 16,3 West 19,3 1016,5 83 -
03:58 18,6 15,5 4,7 NW 19,3 1016,5 82 -
04:04 18,8 15,3 17,7 NW 17,7 1016,1 80 -
04:08 19,0 15,1 17,7 NW 22,5 1015,8 78 -
04:14 19,4 15,1 3,2 NW 12,9 1015,8 76 -
04:18 19,5 15,2 19,5 West 19,3 1016,1 76 -
04:24 19,5 15,2 16,3 West 19,3 1016,1 76 -
04:28 19,3 15,4 11,1 NW 22,5 1016,1 78 -
04:34 19,1 15,4 9,7 WNW 27,4 1015,8 79 -
04:38 18,9 15,4 9,7 NW 24,1 1015,8 80 -
04:44 18,9 15,4 16,3 NW 19,3 1015,8 80 -
04:48 18,9 15,4 3,2 NW 20,9 1015,8 80 -
04:54 19,0 15,3 14,3 NW 17,7 1015,5 79 -
04:58 19,1 15,2 7,9 NE 20,9 1015,5 78 -
05:04 19,1 15,4 3,2 WNW 11,3 1015,1 79 -
05:08 19,0 15,3 3,2 WNW 12,9 1015,1 79 -
05:14 19,1 15,4 6,4 NNW 12,9 1015,1 79 -
05:18 19,0 15,3 3,2 NNW 11,3 1015,1 79 -
05:24 18,9 15,2   Calm 3,2 1015,5 79 -
05:28 18,9 15,2 3,2 ENE 3,2 1015,5 79 -
05:34 18,7 15,2 3,2 NE 6,4 1015,5 80 -
05:38 18,6 15,1 3,2 ENE 11,3 1015,5 80 -
05:44 18,8 15,1   Calm 4,8 1015,5 79 -
05:48 18,7 15,2   Calm   1015,5 80 -
05:54 18,7 15,2 4,7 ENE 8,0 1015,5 80 -
05:58 18,7 15,0 3,2 ENE 8,0 1015,1 79 -
06:04 18,6 15,1   Calm   1015,5 80 -
06:08 18,6 15,1   Calm   1015,5 80 -
06:14 18,4 15,3   Calm 1,6 1015,5 82 -
06:18 18,3 15,2   Calm   1015,5 82 -
06:24 18,2 15,3   Calm   1015,5 83 -
06:28 18,1 15,4   Calm 1,6 1015,5 84 -
06:34 17,9 15,3   Calm   1015,1 85 -
06:39 17,8 15,4   Calm   1015,1 86 -
06:43 17,8 15,4   Calm   1015,5 86 -
06:49 17,7 15,3   Calm   1015,5 86 -
06:53 17,6 15,4   Calm   1015,5 87 -
06:59 17,5 15,3   Calm   1015,5 87 -
07:03 17,5 15,3   Calm   1015,5 87 -
07:09 17,4 15,4   Calm   1015,1 88 -
07:13 17,3 15,3   Calm   1015,1 88 -
07:19 17,3 15,3 3,2 NNE 3,2 1015,1 88 -
07:23 17,2 15,2   Calm   1015,1 88 -
07:29 17,2 15,4   Calm 1,6 1015,1 89 -
07:33 17,6 15,9   Calm   1015,1 90 -
07:39 18,3 16,5   Calm   1015,1 89 -
07:43 18,6 16,2   Calm 1,6 1015,5 86 -
07:49 18,4 16,0   Calm 1,6 1015,1 86 -
07:53 18,4 15,8 1,4 WNW 3,2 1015,5 85 -
07:59 18,4 15,8 1,4 North 1,6 1015,1 85 -
08:03 18,6 16,2   Calm 1,6 1015,5 86 -
08:09 18,9 16,3 1,4 NW 1,6 1015,5 85 -
08:13 19,0 16,2   Calm 1,6 1015,5 84 -
08:19 19,3 16,1 1,4 WNW 3,2 1015,5 82 -
08:23 19,3 16,1   Calm 1,6 1015,5 82 -
08:29 19,6 16,2   Calm 3,2 1015,5 81 -
08:33 19,7 16,5   Calm 1,6 1015,5 82 -
08:39 20,1 16,5   Calm   1015,5 80 -
08:43 20,3 16,3 3,2 SW 3,2 1015,8 78 -
08:49 20,3 15,9   Calm 1,6 1015,5 76 -
08:53 20,4 16,0   Calm 3,2 1015,8 76 -
08:57 20,6 16,2   Calm 1,6 1015,8 76 -
09:03 20,9 16,1 3,2 SW 3,2 1015,8 74 -
09:07 21,1 16,1   Calm 3,2 1015,8 73 -
09:14 21,4 15,7 3,2 SSW 4,8 1015,5 70 -
09:18 21,6 15,4 6,4 West 11,3 1015,5 68 -
09:24 21,7 15,1 6,4 WSW 8,0 1015,8 66 -
09:28 21,7 15,3 11,1 West 14,5 1015,5 67 -
09:34 21,8 15,2 6,4 WSW 12,9 1015,8 66 -
09:38 21,7 15,3 7,9 SW 11,3 1015,8 67 -
09:44 21,7 15,3 6,4 West 16,1 1015,8 67 -
09:48 21,7 15,3 4,7 WSW 9,7 1015,8 67 -
09:54 22,1 15,9 4,7 WNW 8,0 1015,5 68 -
09:58 22,1 15,7 6,4 WNW 16,1 1015,8 67 -
10:04 22,0 15,6 3,2 WNW 16,1 1015,8 67 -
10:08 22,1 15,7 13,0 WNW 14,5 1015,8 67 -
10:14 22,1 15,7 11,1 West 11,3 1015,8 67 -
10:18 22,1 16,1 7,9 West 9,7 1015,8 69 -
10:24 22,2 16,2 3,2 NNW 9,7 1015,8 69 -
10:28 22,1 15,9 7,9 NW 12,9 1015,8 68 -
10:34 21,9 15,7 6,4 WNW 11,3 1015,5 68 -
10:38 22,1 15,9 6,4 NW 12,9 1015,5 68 -
10:44 22,1 16,4 13,0 West 12,9 1015,5 70 -
10:48 22,2 16,2 1,4 West 9,7 1015,5 69 -
10:54 22,4 16,2 1,4 SSW 11,3 1015,8 68 -
Daily Summary for Friday 20 July 2018
Time Temp. ( °C ) Dew pt. ( °C ) Wind ( km/h ) from Gust ( km/h ) Pressure ( hPa ) Humid.( % ) Rainrate ( cm )
High22,4 16,8 19,5 NW ( 206/805 ) 30,6 1016,8 90 -
Average19,7 15,8 6,1 Calm #34/131 11,6 1015,6 79 -
Low17,2 15,0 -   0,0 1014,8 66 -
Daily Tabular details for Friday 20 July 2018
Time Temp. ( °C ) Dew pt. ( °C ) Wind ( km/h ) from Gust ( km/h ) Pressure ( hPa ) Humid.( % ) Rainrate ( cm )
00:04 20,9 16,7 16,3 North 22,5 1015,5 77 -
00:08 20,9 16,7 7,9 NNW 22,5 1015,5 77 -
00:14 20,9 16,7 13,0 North 17,7 1015,5 77 -
00:18 20,9 16,7 16,3 NNW 19,3 1015,5 77 -
00:24 21,1 16,7 3,2 ENE 11,3 1015,5 76 -
00:28 21,1 16,7 13,0 NNE 12,9 1015,8 76 -
00:34 21,2 16,6 3,2 North 8,0 1015,8 75 -
00:38 21,2 16,6 14,3 NE 17,7 1015,8 75 -
00:44 21,2 16,6 3,2 North 11,3 1015,5 75 -
00:48 21,1 16,7 9,7 NNW 12,9 1015,8 76 -
00:54 20,9 16,7 6,4 West 11,3 1016,1 77 -
00:58 21,0 16,8 11,1 West 22,5 1016,8 77 -
01:04 20,8 16,6 14,3 West 25,7 1016,8 77 -
01:08 20,8 16,6 7,9 West 16,1 1016,8 77 -
01:14 20,7 16,7 11,1 WNW 22,5 1016,8 78 -
01:18 20,7 16,7 16,3 WNW 16,1 1016,8 78 -
01:24 20,6 16,8 7,9 WNW 20,9 1016,5 79 -
01:28 20,4 16,6 7,9 NW 20,9 1016,5 79 -
01:34 20,2 16,6 13,0 West 17,7 1016,5 80 -
01:38 19,9 16,5 9,7 WNW 16,1 1016,5 81 -
01:44 19,6 16,4 6,4 North 24,1 1016,1 82 -
01:48 19,5 16,2 7,9 WNW 20,9 1015,8 81 -
01:54 19,4 16,1 9,7 West 25,7 1015,5 81 -
01:58 19,5 16,2 13,0 NW 20,9 1015,5 81 -
02:04 19,6 15,9 7,9 NW 20,9 1015,1 79 -
02:08 19,7 16,0 6,4 NW 16,1 1015,1 79 -
02:14 19,7 16,0 11,1 NNW 24,1 1015,1 79 -
02:18 19,7 16,0 6,4 NW 20,9 1015,5 79 -
02:24 19,6 15,9 16,3 WNW 22,5 1015,5 79 -
02:28 19,6 15,9 4,7 NW 16,1 1015,8 79 -
02:34 19,6 16,1 11,1 NW 24,1 1015,8 80 -
02:38 19,4 15,9 9,7 WNW 11,3 1016,1 80 -
02:44 19,4 15,9 11,1 NNW 20,9 1015,8 80 -
02:48 19,3 16,0 19,5 West 30,6 1015,5 81 -
02:54 18,8 15,9 14,3 WNW 20,9 1015,1 83 -
02:58 18,7 15,6 4,7 NW 20,9 1015,1 82 -
03:04 18,8 15,3 14,3 NNW 19,3 1015,1 80 -
03:08 18,9 15,2 7,9 NW 17,7 1015,1 79 -
03:14 18,9 15,2 17,7 NNW 24,1 1015,1 79 -
03:18 18,9 15,4 9,7 NW 22,5 1015,1 80 -
03:24 18,9 15,4 6,4 NNE 17,7 1014,8 80 -
03:28 18,9 15,6 7,9 NW 19,3 1014,8 81 -
03:34 18,8 15,5 6,4 North 11,3 1015,1 81 -
03:38 18,9 15,6 4,7 NNW 6,4 1015,1 81 -
03:44 18,8 15,5 4,7 NW 17,7 1015,1 81 -
03:48 18,8 15,7 4,7 WSW 14,5 1015,5 82 -
03:54 18,6 15,7 16,3 West 19,3 1016,5 83 -
03:58 18,6 15,5 4,7 NW 19,3 1016,5 82 -
04:04 18,8 15,3 17,7 NW 17,7 1016,1 80 -
04:08 19,0 15,1 17,7 NW 22,5 1015,8 78 -
04:14 19,4 15,1 3,2 NW 12,9 1015,8 76 -
04:18 19,5 15,2 19,5 West 19,3 1016,1 76 -
04:24 19,5 15,2 16,3 West 19,3 1016,1 76 -
04:28 19,3 15,4 11,1 NW 22,5 1016,1 78 -
04:34 19,1 15,4 9,7 WNW 27,4 1015,8 79 -
04:38 18,9 15,4 9,7 NW 24,1 1015,8 80 -
04:44 18,9 15,4 16,3 NW 19,3 1015,8 80 -
04:48 18,9 15,4 3,2 NW 20,9 1015,8 80 -
04:54 19,0 15,3 14,3 NW 17,7 1015,5 79 -
04:58 19,1 15,2 7,9 NE 20,9 1015,5 78 -
05:04 19,1 15,4 3,2 WNW 11,3 1015,1 79 -
05:08 19,0 15,3 3,2 WNW 12,9 1015,1 79 -
05:14 19,1 15,4 6,4 NNW 12,9 1015,1 79 -
05:18 19,0 15,3 3,2 NNW 11,3 1015,1 79 -
05:24 18,9 15,2   Calm 3,2 1015,5 79 -
05:28 18,9 15,2 3,2 ENE 3,2 1015,5 79 -
05:34 18,7 15,2 3,2 NE 6,4 1015,5 80 -
05:38 18,6 15,1 3,2 ENE 11,3 1015,5 80 -
05:44 18,8 15,1   Calm 4,8 1015,5 79 -
05:48 18,7 15,2   Calm   1015,5 80 -
05:54 18,7 15,2 4,7 ENE 8,0 1015,5 80 -
05:58 18,7 15,0 3,2 ENE 8,0 1015,1 79 -
06:04 18,6 15,1   Calm   1015,5 80 -
06:08 18,6 15,1   Calm   1015,5 80 -
06:14 18,4 15,3   Calm 1,6 1015,5 82 -
06:18 18,3 15,2   Calm   1015,5 82 -
06:24 18,2 15,3   Calm   1015,5 83 -
06:28 18,1 15,4   Calm 1,6 1015,5 84 -
06:34 17,9 15,3   Calm   1015,1 85 -
06:39 17,8 15,4   Calm   1015,1 86 -
06:43 17,8 15,4   Calm   1015,5 86 -
06:49 17,7 15,3   Calm   1015,5 86 -
06:53 17,6 15,4   Calm   1015,5 87 -
06:59 17,5 15,3   Calm   1015,5 87 -
07:03 17,5 15,3   Calm   1015,5 87 -
07:09 17,4 15,4   Calm   1015,1 88 -
07:13 17,3 15,3   Calm   1015,1 88 -
07:19 17,3 15,3 3,2 NNE 3,2 1015,1 88 -
07:23 17,2 15,2   Calm   1015,1 88 -
07:29 17,2 15,4   Calm 1,6 1015,1 89 -
07:33 17,6 15,9   Calm   1015,1 90 -
07:39 18,3 16,5   Calm   1015,1 89 -
07:43 18,6 16,2   Calm 1,6 1015,5 86 -
07:49 18,4 16,0   Calm 1,6 1015,1 86 -
07:53 18,4 15,8 1,4 WNW 3,2 1015,5 85 -
07:59 18,4 15,8 1,4 North 1,6 1015,1 85 -
08:03 18,6 16,2   Calm 1,6 1015,5 86 -
08:09 18,9 16,3 1,4 NW 1,6 1015,5 85 -
08:13 19,0 16,2   Calm 1,6 1015,5 84 -
08:19 19,3 16,1 1,4 WNW 3,2 1015,5 82 -
08:23 19,3 16,1   Calm 1,6 1015,5 82 -
08:29 19,6 16,2   Calm 3,2 1015,5 81 -
08:33 19,7 16,5   Calm 1,6 1015,5 82 -
08:39 20,1 16,5   Calm   1015,5 80 -
08:43 20,3 16,3 3,2 SW 3,2 1015,8 78 -
08:49 20,3 15,9   Calm 1,6 1015,5 76 -
08:53 20,4 16,0   Calm 3,2 1015,8 76 -
08:57 20,6 16,2   Calm 1,6 1015,8 76 -
09:03 20,9 16,1 3,2 SW 3,2 1015,8 74 -
09:07 21,1 16,1   Calm 3,2 1015,8 73 -
09:14 21,4 15,7 3,2 SSW 4,8 1015,5 70 -
09:18 21,6 15,4 6,4 West 11,3 1015,5 68 -
09:24 21,7 15,1 6,4 WSW 8,0 1015,8 66 -
09:28 21,7 15,3 11,1 West 14,5 1015,5 67 -
09:34 21,8 15,2 6,4 WSW 12,9 1015,8 66 -
09:38 21,7 15,3 7,9 SW 11,3 1015,8 67 -
09:44 21,7 15,3 6,4 West 16,1 1015,8 67 -
09:48 21,7 15,3 4,7 WSW 9,7 1015,8 67 -
09:54 22,1 15,9 4,7 WNW 8,0 1015,5 68 -
09:58 22,1 15,7 6,4 WNW 16,1 1015,8 67 -
10:04 22,0 15,6 3,2 WNW 16,1 1015,8 67 -
10:08 22,1 15,7 13,0 WNW 14,5 1015,8 67 -
10:14 22,1 15,7 11,1 West 11,3 1015,8 67 -
10:18 22,1 16,1 7,9 West 9,7 1015,8 69 -
10:24 22,2 16,2 3,2 NNW 9,7 1015,8 69 -
10:28 22,1 15,9 7,9 NW 12,9 1015,8 68 -
10:34 21,9 15,7 6,4 WNW 11,3 1015,5 68 -
10:38 22,1 15,9 6,4 NW 12,9 1015,5 68 -
10:44 22,1 16,4 13,0 West 12,9 1015,5 70 -
10:48 22,2 16,2 1,4 West 9,7 1015,5 69 -
10:54 22,4 16,2 1,4 SSW 11,3 1015,8 68 -

Download your copy of this data-set  here

Our weather-data as stored at Weather Underground. Script developed by Jim McMurry. Adapted for the template by Leuven-Template.eu

You find our weather info also at:

Weather Underground

Equipment we use:

Weather-station
Davis Vue

Weather-program
Meteobridge

Weather-server
Raspberry PI 2 B+

Provider
1 and 1

Davis Vue

Meteobridge

Raspberry PI 2 B+

1 and 1